sat.trackr.live / text

‹ back to catalog

STARLINK-37957

NORAD 69685 · 2026-145J

PAYLOAD ACTIVE UNKNOWN

§ Identity

Operator
Country
US
Launch date
2026-06-25
Launch site
AFWTR
Launch vehicle
Mass (kg)
RCS (m²)

Purposes: comms

External: N2YO · Heavens-Above · Gunter

§ Orbital elements

Epoch: 2026-09-19T20:33:45.068832Z

Period
93.91 min
Inclination
97.2853°
Eccentricity
0.0002552
Mean motion
15.33460768 rev/d
Perigee alt
463.7 km
Apogee alt
467.2 km
Semi-major
6,843.6 km
B*
6.1268e-4
RAAN
109.5141°
Arg perigee
87.4627°
Mean anomaly
272.6908°
Rev number
1,344

§ Raw data

STARLINK-379571 69685U 26145J   26262.85677163  .00019767  00000+0  61268-3 0  99982 69685  97.2853 109.5141 0002552  87.4627 272.6908 15.33460768 13448

JSON: /api/v1/satellites/69685 · /tle

For live sub-satellite position, see the globe view (requires WebGL).

§ Visibility from observer

Set your observer location to see the next 7 days of passes ≥ 10°. The values pass through the URL so the page stays shareable.

No JS? Fill the form by hand. The geolocation button needs JavaScript.